Miscellaneous Local Product
Issued by NWS Hastings, NE

Home | Current Version | Previous Version | Text Only | Print | Product List | Glossary On
Versions: 1 2 3 4 5 6 7 8 9 10 11 12 13 14 15 16 17 18 19 20 21 22 23 24 25 26 27 28 29 30 31 32 33 34 35 36 37 38 39 40 41 42 43 44 45 46 47 48 49 50
117
AXUS43 KGID 060902
MISGRI

GID CWA HOURLY WEATHER ROUNDUP
NATIONAL WEATHER SERVICE HASTINGS NE
300 AM CST SAT FEB 06 2016

NOTE: "FAIR" INDICATES FEW OR NO CLOUDS BELOW 12,000 FEET WITH NO
SIGNIFICANT WEATHER AND/OR OBSTRUCTIONS TO VISIBILITY.

...SOUTH CENTRAL NEBRASKA...

CITY           SKY/WX    TMP DP  RH WIND       PRES   REMARKS
GRAND ISLAND   CLEAR     22  19  89 W9        30.28R WCI  12
HASTINGS       CLEAR     22  18  85 W7        30.27R WCI  13
ORD            CLEAR     18  15  88 CALM      30.23F
YORK           CLEAR     19  19 100 W9        30.27R WCI   9
AURORA         CLEAR     22  21  98 W6        30.27R WCI  14
LEXINGTON      CLOUDY    10   7  87 NW3       30.27S
HOLDREGE       CLOUDY    18  16  91 W3        30.28R
HEBRON         CLEAR     23  22  97 W3        30.29S

...NEBRASKA PANHANDLE...

CITY           SKY/WX    TMP DP  RH WIND       PRES   REMARKS
CHADRON        CLOUDY    20  13  74 SW6       30.18S WCI  12
ALLIANCE       CLOUDY    10   6  84 W8        30.18S WCI  -2
SCOTTSBLUFF    CLOUDY    20  13  74 N7        30.21F WCI  11
SIDNEY         CLOUDY    19  10  68 W13       30.22F WCI   6

...WESTERN AND NORTH CENTRAL NEBRASKA...

CITY           SKY/WX    TMP DP  RH WIND       PRES   REMARKS
VALENTINE      CLOUDY    23  18  81 SW8       30.15F WCI  14
AINSWORTH      CLEAR     23  19  85 SW8       30.17F WCI  14
ONEILL         CLEAR     24  21  88 SW8       30.21S WCI  15
BROKEN BOW     CLOUDY    15  14  95 CALM      30.23S
IMPERIAL       CLOUDY    20   9  62 W14       30.26S WCI   7
NORTH PLATTE   CLOUDY    11   6  81 NW3       30.24F
MCCOOK         CLOUDY    14  10  84 W8        30.29R WCI   3

...EASTERN NEBRASKA...

CITY           SKY/WX    TMP DP  RH WIND       PRES   REMARKS
NORFOLK        HAZE      17  12  80 NW3       30.24R VSB 1/2
SO SIOUX CITY  FOG       18  14  84 S3        30.24S VSB 1/4
TEKAMAH        CLOUDY    30  27  88 NW6       30.26S WCI  24
COLUMBUS         N/A     14   7  73 W3        30.26S VSB 3/4
ALBION         CLEAR     23  21  91 NW5       30.25S WCI  17
OMAHA EPPLEY   CLOUDY    31  29  92 NW3       30.27R
OFFUTT AFB     CLOUDY    31  31  99 NW3       30.26R
MILLARD        CLOUDY    33  31  90 NW6       30.26S WCI  28
LINCOLN        CLEAR     31  28  89 CALM      30.29R
NEBRASKA CITY  CLOUDY    32  32 100 N5        30.26S WCI  27
BEATRICE       CLOUDY    31  30  94 W5        30.27S WCI  27
FALLS CITY     CLEAR     28  25  88 W5        30.27R WCI  23

...NORTHERN KANSAS...

CITY           SKY/WX    TMP DP  RH WIND       PRES   REMARKS
GOODLAND       CLOUDY    13   6  74 W9        30.28F WCI   1
HILL CITY      CLEAR     20  15  81 W8        30.31F WCI  10
NORTON         SUNNY     16  10  79 W9        30.28F WCI   4
PHILLIPSBURG   CLEAR     19  18  93 CALM      30.31S
BELOIT         CLEAR     28  27  93 W5        30.30S WCI  23
HAYS           CLEAR     23  10  58 NW8       30.31S WCI  14
RUSSELL        CLEAR     24  21  88 NW12      30.30R WCI  13
CONCORDIA      CLEAR     27  24  89 W6        30.29R WCI  20
SALINA         CLEAR     28  24  85 NW6       30.31R WCI  22
TOPEKA         CLEAR     26  21  81 CALM      30.27S



USA.gov is the U.S. government's official web portal to all federal, state and local government web resources and services.